sat.trackr.live / text

‹ back to catalog

SAUDISAT 4

NORAD 40016 · 2014-033G

PAYLOAD ACTIVE UNKNOWN

§ Identity

Operator
Country
SAUD
Launch date
2014-06-19
Launch site
DLS
Launch vehicle
Mass (kg)
RCS (m²)
0.44

Purposes: tech_demo

External: N2YO · Heavens-Above · Gunter

§ Orbital elements

Epoch: 2026-09-20T03:14:52.193184Z

Period
97.32 min
Inclination
97.7726°
Eccentricity
0.0045891
Mean motion
14.79645010 rev/d
Perigee alt
598.3 km
Apogee alt
662.6 km
Semi-major
7,008.6 km
B*
6.6811e-5
RAAN
46.0721°
Arg perigee
123.4649°
Mean anomaly
237.0963°
Rev number
66,011

§ Raw data

SAUDISAT 41 40016U 14033G   26263.13532631  .00000458  00000+0  66811-4 0  99972 40016  97.7726  46.0721 0045891 123.4649 237.0963 14.79645010660118

JSON: /api/v1/satellites/40016 · /tle

For live sub-satellite position, see the globe view (requires WebGL).

§ Visibility from observer

Set your observer location to see the next 7 days of passes ≥ 10°. The values pass through the URL so the page stays shareable.

No JS? Fill the form by hand. The geolocation button needs JavaScript.

§ Radio — SatNOGS DB

ModeDescriptionDownlinkUplink
FM Mode U 401.600 MHz
FM Mode V TLM 148.035 MHz

2 transmitters · refreshed weekly from db.satnogs.org